| time (UTC) | temp F | wind direction | speed MPH | gust MPH | rain 1hr in | rain 24hr in | rain mn in | humidity % | barometer mb |
| 20260904164000 | 87 | 191 | 2.0 | 5.0 | 0.00 | 1.01 | 1.01 | 71 | 1014.4 |
| 20260904163443 | 87 | 194 | 2.0 | 5.0 | 0.00 | 1.01 | 1.01 | 73 | 1014.4 |
| 20260904162943 | 87 | 100 | 1.0 | 4.0 | 0.00 | 1.01 | 1.01 | 76 | 1014.3 |
| 20260904162433 | 86 | 69 | 2.0 | 5.0 | 0.00 | 1.01 | 1.01 | 76 | 1014.4 |
| 20260904161927 | 86 | 72 | 1.0 | 5.0 | 0.00 | 1.01 | 1.01 | 79 | 1014.4 |
| 20260904161423 | 85 | 62 | 2.0 | 6.0 | 0.00 | 1.01 | 1.01 | 79 | 1014.3 |
| 20260904160909 | 84 | 61 | 3.0 | 6.0 | 0.00 | 1.01 | 1.01 | 80 | 1014.3 |
| 20260904160407 | 83 | 55 | 3.0 | 6.0 | 0.00 | 1.01 | 1.01 | 80 | 1014.3 |
| 20260904155901 | 83 | 78 | 2.0 | 6.0 | 0.00 | 1.01 | 1.01 | 80 | 1014.2 |
| 20260904155355 | 83 | 28 | 2.0 | 8.0 | 0.00 | 1.01 | 1.01 | 81 | 1014.1 |
| 20260904154225 | 82 | 73 | 4.0 | 9.0 | 0.04 | 1.01 | 1.01 | 82 | 1014.1 |
| 20260904153712 | 81 | 13 | 5.0 | 16.0 | 0.06 | 1.01 | 1.01 | 82 | 1014.0 |
| 20260904153200 | 80 | 16 | 8.0 | 16.0 | 0.12 | 1.01 | 1.01 | 81 | 1013.9 |
| 20260904152650 | 79 | 19 | 10.0 | 16.0 | 0.14 | 1.00 | 1.00 | 82 | 1014.1 |
| 20260904152156 | 78 | 18 | 11.0 | 16.0 | 0.19 | 0.99 | 0.99 | 82 | 1014.0 |
| 20260904151657 | 78 | 21 | 9.0 | 14.0 | 0.86 | 0.97 | 0.97 | 82 | 1014.1 |
| 20260904151200 | 79 | 48 | 6.0 | 13.0 | 0.33 | 0.84 | 0.84 | 81 | 1014.4 |
| 20260904150656 | 79 | 41 | 4.0 | 17.0 | 0.94 | 0.80 | 0.80 | 80 | 1014.4 |
| 20260904150153 | 79 | 2 | 5.0 | 17.0 | 2.13 | 0.70 | 0.70 | 80 | 1014.6 |
| 20260904145024 | 81 | 15 | 3.0 | 15.0 | 4.19 | 0.40 | 0.42 | 79 | 1014.0 |
| 20260904144510 | 81 | 100 | 2.0 | 13.0 | 2.58 | 0.14 | 0.16 | 78 | 1013.9 |
| 20260904143957 | 81 | 333 | 3.0 | 13.0 | 0.05 | 0.04 | 0.04 | 78 | 1013.8 |
| 20260904143500 | 81 | 57 | 5.0 | 16.0 | 0.07 | 0.04 | 0.04 | 77 | 1013.6 |
| 20260904143006 | 81 | 344 | 6.0 | 16.0 | 0.07 | 0.04 | 0.04 | 77 | 1013.5 |
| 20260904142447 | 81 | 17 | 8.0 | 16.0 | 0.12 | 0.03 | 0.03 | 75 | 1013.5 |
| 20260904141338 | 84 | 17 | 2.0 | 9.0 | 0.00 | 0.00 | 0.00 | 72 | 1013.4 |
| 20260904140816 | 85 | 293 | 2.0 | 10.0 | 0.00 | 0.00 | 0.00 | 72 | 1013.4 |
| 20260904135658 | 87 | 34 | 4.0 | 10.0 | 0.00 | 0.00 | 0.00 | 75 | 1013.1 |
| 20260904135148 | 87 | 72 | 4.0 | 10.0 | 0.00 | 0.00 | 0.00 | 74 | 1013.2 |
| 20260904133418 | 88 | 170 | 1.0 | 4.0 | 0.00 | 0.00 | 0.00 | 75 | 1013.0 |
| 20260904132917 | 88 | 201 | 2.0 | 4.0 | 0.00 | 0.00 | 0.00 | 75 | 1012.9 |
| 20260904132358 | 88 | 191 | 2.0 | 4.0 | 0.00 | 0.00 | 0.00 | 75 | 1012.9 |
| 20260904131846 | 88 | 179 | 2.0 | 4.0 | 0.00 | 0.00 | 0.00 | 75 | 1012.8 |
| 20260904131346 | 88 | 186 | 2.0 | 4.0 | 0.00 | 0.00 | 0.00 | 76 | 1012.8 |
| 20260904130829 | 88 | 195 | 2.0 | 4.0 | 0.00 | 0.00 | 0.00 | 76 | 1012.8 |
| 20260904130318 | 88 | 191 | 2.0 | 4.0 | 0.00 | 0.00 | 0.00 | 76 | 1012.7 |
| 20260904125821 | 87 | 2 | 2.0 | 4.0 | 0.00 | 0.00 | 0.00 | 75 | 1012.8 |
| 20260904124841 | 87 | 211 | 3.0 | 5.0 | 0.00 | 0.00 | 0.00 | 76 | 1012.7 |
| 20260904124346 | 87 | 2 | 2.0 | 5.0 | 0.00 | 0.00 | 0.00 | 76 | 1012.6 |
| 20260904123853 | 87 | 196 | 2.0 | 5.0 | 0.00 | 0.00 | 0.00 | 76 | 1012.5 |
| 20260904123350 | 87 | 198 | 2.0 | 5.0 | 0.00 | 0.00 | 0.00 | 76 | 1012.5 |
| 20260904122204 | 87 | 190 | 2.0 | 7.0 | 0.00 | 0.00 | 0.00 | 76 | 1012.2 |
| 20260904121647 | 87 | 214 | 3.0 | 7.0 | 0.00 | 0.00 | 0.00 | 76 | 1012.1 |
| 20260904121128 | 87 | 215 | 2.0 | 6.0 | 0.00 | 0.00 | 0.00 | 76 | 1012.1 |
| 20260904120625 | 87 | 2 | 2.0 | 6.0 | 0.00 | 0.00 | 0.00 | 76 | 1012.1 |
| 20260904120132 | 87 | 207 | 2.0 | 6.0 | 0.00 | 0.00 | 0.00 | 76 | 1012.2 |
| 20260904115634 | 87 | 210 | 3.0 | 8.0 | 0.00 | 0.00 | 0.00 | 76 | 1012.2 |
| 20260904115115 | 87 | 206 | 3.0 | 8.0 | 0.00 | 0.00 | 0.00 | 76 | 1012.1 |
| 20260904114606 | 87 | 198 | 3.0 | 8.0 | 0.00 | 0.00 | 0.00 | 76 | 1011.9 |
| 20260904114111 | 87 | 210 | 3.0 | 8.0 | 0.00 | 0.00 | 0.00 | 76 | 1012.0 |
| 20260904113613 | 87 | 213 | 2.0 | 5.0 | 0.00 | 0.00 | 0.00 | 77 | 1011.9 |
| 20260904112441 | 87 | 216 | 2.0 | 5.0 | 0.00 | 0.00 | 0.00 | 77 | 1011.9 |
| 20260904111924 | 87 | 216 | 2.0 | 5.0 | 0.00 | 0.00 | 0.00 | 77 | 1012.0 |
| 20260904111432 | 87 | 198 | 3.0 | 8.0 | 0.00 | 0.00 | 0.00 | 77 | 1012.1 |
| 20260904110928 | 87 | 212 | 3.0 | 8.0 | 0.00 | 0.00 | 0.00 | 77 | 1012.2 |
| 20260904105822 | 87 | 198 | 3.0 | 8.0 | 0.00 | 0.00 | 0.00 | 76 | 1012.1 |
| 20260904105305 | 87 | 202 | 3.0 | 8.0 | 0.00 | 0.00 | 0.00 | 76 | 1012.1 |
| 20260904104132 | 87 | 216 | 3.0 | 8.0 | 0.00 | 0.00 | 0.00 | 76 | 1011.9 |
| 20260904103623 | 87 | 188 | 3.0 | 10.0 | 0.00 | 0.00 | 0.00 | 76 | 1011.8 |
| 20260904103122 | 87 | 189 | 4.0 | 10.0 | 0.00 | 0.00 | 0.00 | 76 | 1011.7 |
| 20260904102630 | 87 | 188 | 4.0 | 10.0 | 0.00 | 0.00 | 0.00 | 76 | 1011.7 |
| 20260904102107 | 87 | 203 | 5.0 | 10.0 | 0.00 | 0.00 | 0.00 | 76 | 1011.6 |
| 20260904101613 | 87 | 204 | 5.0 | 9.0 | 0.00 | 0.00 | 0.00 | 76 | 1011.5 |
| 20260904101051 | 87 | 204 | 5.0 | 9.0 | 0.00 | 0.00 | 0.00 | 75 | 1011.5 |
| 20260904100550 | 87 | 197 | 5.0 | 10.0 | 0.00 | 0.00 | 0.00 | 75 | 1011.6 |
| 20260904095424 | 87 | 194 | 6.0 | 10.0 | 0.00 | 0.00 | 0.00 | 75 | 1011.5 |
| 20260904094930 | 87 | 2 | 5.0 | 10.0 | 0.00 | 0.00 | 0.00 | 75 | 1011.5 |
| 20260904094425 | 87 | 191 | 5.0 | 9.0 | 0.00 | 0.00 | 0.00 | 76 | 1011.5 |
| 20260904093923 | 87 | 2 | 5.0 | 10.0 | 0.00 | 0.00 | 0.00 | 75 | 1011.5 |
| 20260904093411 | 87 | 198 | 5.0 | 10.0 | 0.00 | 0.00 | 0.00 | 75 | 1011.4 |
| 20260904092250 | 87 | 214 | 5.0 | 10.0 | 0.00 | 0.00 | 0.00 | 75 | 1011.4 |
| 20260904091755 | 87 | 2 | 5.0 | 10.0 | 0.00 | 0.00 | 0.00 | 75 | 1011.3 |
| 20260904091249 | 87 | 177 | 5.0 | 10.0 | 0.00 | 0.00 | 0.00 | 75 | 1011.4 |
| 20260904085557 | 87 | 212 | 6.0 | 10.0 | 0.00 | 0.00 | 0.00 | 75 | 1011.3 |
| 20260904084415 | 87 | 2 | 7.0 | 12.0 | 0.00 | 0.00 | 0.00 | 75 | 1011.2 |
| 20260904083911 | 87 | 186 | 7.0 | 12.0 | 0.00 | 0.00 | 0.00 | 76 | 1011.2 |
| 20260904083352 | 87 | 223 | 8.0 | 12.0 | 0.00 | 0.00 | 0.00 | 76 | 1011.3 |
| 20260904082855 | 87 | 176 | 8.0 | 12.0 | 0.00 | 0.00 | 0.00 | 76 | 1011.3 |
| 20260904081733 | 87 | 178 | 8.0 | 11.0 | 0.00 | 0.00 | 0.00 | 76 | 1011.3 |
| 20260904080611 | 87 | 2 | 8.0 | 12.0 | 0.00 | 0.00 | 0.00 | 77 | 1011.3 |
| 20260904080055 | 87 | 213 | 8.0 | 12.0 | 0.00 | 0.00 | 0.00 | 77 | 1011.4 |
| 20260904075537 | 87 | 2 | 8.0 | 12.0 | 0.00 | 0.00 | 0.00 | 77 | 1011.4 |
| 20260904074403 | 88 | 2 | 9.0 | 12.0 | 0.00 | 0.00 | 0.00 | 77 | 1011.4 |
| 20260904073228 | 88 | 194 | 8.0 | 13.0 | 0.00 | 0.00 | 0.00 | 76 | 1011.6 |
| 20260904072713 | 88 | 196 | 8.0 | 13.0 | 0.00 | 0.00 | 0.00 | 76 | 1011.5 |
| 20260904072209 | 88 | 200 | 8.0 | 13.0 | 0.00 | 0.00 | 0.00 | 76 | 1011.5 |
| 20260904071653 | 88 | 213 | 9.0 | 14.0 | 0.00 | 0.00 | 0.00 | 76 | 1011.7 |
| 20260904070519 | 88 | 192 | 10.0 | 14.0 | 0.00 | 0.00 | 0.00 | 76 | 1011.7 |
| 20260904070012 | 88 | 196 | 10.0 | 14.0 | 0.00 | 0.00 | 0.00 | 76 | 1011.7 |
| 20260904064834 | 88 | 204 | 10.0 | 13.0 | 0.00 | 0.00 | 0.00 | 75 | 1011.7 |
| 20260904063712 | 88 | 184 | 10.0 | 14.0 | 0.00 | 0.00 | 0.00 | 76 | 1011.7 |
| 20260904063150 | 88 | 194 | 10.0 | 14.0 | 0.00 | 0.00 | 0.00 | 75 | 1011.6 |
| 20260904062647 | 88 | 205 | 10.0 | 14.0 | 0.00 | 0.00 | 0.00 | 76 | 1011.6 |
| 20260904062148 | 88 | 194 | 10.0 | 14.0 | 0.00 | 0.00 | 0.00 | 76 | 1011.6 |
| 20260904061641 | 88 | 195 | 10.0 | 14.0 | 0.00 | 0.00 | 0.00 | 75 | 1011.6 |
| 20260904061139 | 88 | 180 | 10.0 | 15.0 | 0.00 | 0.00 | 0.00 | 76 | 1011.7 |
| 20260904060620 | 88 | 194 | 10.0 | 15.0 | 0.00 | 0.00 | 0.00 | 76 | 1011.7 |
| 20260904060116 | 88 | 2 | 11.0 | 15.0 | 0.00 | 0.00 | 0.00 | 75 | 1011.8 |
| 20260904055602 | 88 | 194 | 10.0 | 15.0 | 0.00 | 0.00 | 0.00 | 75 | 1011.9 |
| 20260904054414 | 88 | 2 | 10.0 | 15.0 | 0.00 | 0.00 | 0.00 | 76 | 1012.1 |
| 20260904053900 | 88 | 180 | 10.0 | 14.0 | 0.00 | 0.00 | 0.00 | 75 | 1012.1 |
| 20260904053342 | 88 | 186 | 10.0 | 14.0 | 0.00 | 0.00 | 0.00 | 75 | 1012.1 |
| 20260904052822 | 88 | 190 | 9.0 | 14.0 | 0.00 | 0.00 | 0.00 | 75 | 1012.1 |
| 20260904052307 | 88 | 195 | 9.0 | 12.0 | 0.00 | 0.00 | 0.00 | 75 | 1012.0 |
| 20260904045842 | 88 | 198 | 9.0 | 13.0 | 0.00 | 0.00 | 0.00 | 75 | 1012.0 |
| 20260904045345 | 88 | 194 | 9.0 | 13.0 | 0.00 | 0.00 | 0.00 | 75 | 1012.0 |
| 20260904044844 | 88 | 186 | 9.0 | 14.0 | 0.00 | 0.00 | 0.00 | 75 | 1012.0 |
| 20260904043650 | 88 | 169 | 9.0 | 14.0 | 0.00 | 0.00 | 0.00 | 75 | 1012.0 |
| 20260904043135 | 88 | 198 | 7.0 | 13.0 | 0.00 | 0.00 | 0.00 | 75 | 1012.0 |
| 20260904042623 | 88 | 173 | 6.0 | 13.0 | 0.00 | 0.00 | 0.00 | 74 | 1012.0 |
| 20260904042121 | 88 | 189 | 6.0 | 13.0 | 0.00 | 0.00 | 0.00 | 74 | 1012.0 |
| 20260904041616 | 88 | 138 | 6.0 | 13.0 | 0.00 | 0.00 | 0.00 | 74 | 1012.0 |
| 20260904041120 | 88 | 219 | 7.0 | 13.0 | 0.00 | 0.00 | 0.00 | 74 | 1012.0 |
| 20260904040616 | 88 | 194 | 7.0 | 13.0 | 0.00 | 0.00 | 0.00 | 74 | 1012.1 |
| 20260904040106 | 87 | 140 | 6.0 | 12.0 | 0.00 | 0.00 | 0.00 | 74 | 1012.2 |
| 20260904035548 | 87 | 2 | 6.0 | 10.0 | 0.00 | 0.00 | 0.00 | 74 | 1012.2 |
| 20260904035052 | 87 | 176 | 6.0 | 10.0 | 0.00 | 0.00 | 0.00 | 75 | 1012.2 |
| 20260904034558 | 87 | 184 | 6.0 | 10.0 | 0.00 | 0.00 | 0.00 | 75 | 1012.2 |
| 20260904034040 | 87 | 195 | 6.0 | 10.0 | 0.00 | 0.00 | 0.00 | 75 | 1012.1 |
| 20260904032907 | 87 | 182 | 6.0 | 11.0 | 0.00 | 0.00 | 0.00 | 75 | 1012.1 |
| 20260904032350 | 87 | 169 | 5.0 | 11.0 | 0.00 | 0.00 | 0.00 | 76 | 1012.2 |
| 20260904031842 | 87 | 171 | 6.0 | 11.0 | 0.00 | 0.00 | 0.00 | 76 | 1012.3 |
| 20260904030050 | 87 | 182 | 6.0 | 12.0 | 0.00 | 0.00 | 0.00 | 77 | 1012.2 |
| 20260904025549 | 87 | 173 | 7.0 | 12.0 | 0.00 | 0.00 | 0.00 | 77 | 1012.2 |
| 20260904025035 | 87 | 90 | 7.0 | 12.0 | 0.00 | 0.00 | 0.00 | 76 | 1012.1 |
| 20260904024539 | 87 | 122 | 5.0 | 10.0 | 0.00 | 0.00 | 0.00 | 77 | 1012.1 |
| 20260904024032 | 87 | 201 | 6.0 | 10.0 | 0.00 | 0.00 | 0.00 | 77 | 1011.9 |
| 20260904022856 | 87 | 171 | 5.0 | 9.0 | 0.00 | 0.00 | 0.00 | 77 | 1012.0 |
| 20260904021725 | 87 | 190 | 5.0 | 10.0 | 0.00 | 0.00 | 0.00 | 76 | 1011.9 |
| 20260904021211 | 87 | 172 | 5.0 | 10.0 | 0.00 | 0.00 | 0.00 | 76 | 1011.9 |
| 20260904020652 | 87 | 163 | 5.0 | 10.0 | 0.00 | 0.00 | 0.00 | 76 | 1011.8 |
| 20260904020130 | 87 | 148 | 5.0 | 10.0 | 0.00 | 0.00 | 0.00 | 76 | 1011.8 |
| 20260904015620 | 87 | 142 | 6.0 | 12.0 | 0.00 | 0.00 | 0.00 | 76 | 1011.6 |
| 20260904015125 | 87 | 182 | 6.0 | 12.0 | 0.00 | 0.00 | 0.00 | 76 | 1011.6 |
| 20260904014011 | 87 | 126 | 6.0 | 12.0 | 0.00 | 0.00 | 0.00 | 75 | 1011.4 |
| 20260904013511 | 87 | 172 | 6.0 | 10.0 | 0.00 | 0.00 | 0.00 | 75 | 1011.2 |
| 20260904013006 | 88 | 206 | 5.0 | 9.0 | 0.00 | 0.00 | 0.00 | 75 | 1011.2 |
| 20260904011858 | 87 | 163 | 5.0 | 9.0 | 0.00 | 0.00 | 0.00 | 74 | 1011.4 |
| 20260904010733 | 87 | 154 | 4.0 | 7.0 | 0.00 | 0.00 | 0.00 | 73 | 1011.2 |
| 20260904010235 | 87 | 134 | 3.0 | 9.0 | 0.00 | 0.00 | 0.00 | 74 | 1011.2 |
| 20260904005100 | 87 | 194 | 4.0 | 9.0 | 0.00 | 0.00 | 0.00 | 74 | 1011.2 |
| 20260904003934 | 87 | 190 | 4.0 | 8.0 | 0.00 | 0.00 | 0.00 | 74 | 1011.3 |
| 20260904003427 | 88 | 184 | 4.0 | 8.0 | 0.00 | 0.00 | 0.00 | 74 | 1011.2 |
| 20260904002913 | 87 | 192 | 4.0 | 8.0 | 0.00 | 0.00 | 0.00 | 74 | 1011.3 |
| 20260904002413 | 87 | 175 | 4.0 | 8.0 | 0.00 | 0.00 | 0.00 | 73 | 1011.2 |
| 20260904001907 | 87 | 131 | 5.0 | 10.0 | 0.00 | 0.00 | 0.00 | 73 | 1011.2 |
| 20260904001405 | 87 | 152 | 5.0 | 10.0 | 0.00 | 0.00 | 0.00 | 74 | 1011.3 |
| 20260904000227 | 87 | 176 | 6.0 | 10.0 | 0.00 | 0.00 | 0.00 | 75 | 1011.3 |
| 20260903235709 | 87 | 157 | 7.0 | 11.0 | 0.00 | 0.00 | 0.00 | 74 | 1011.3 |
| 20260903235211 | 88 | 168 | 7.0 | 11.0 | 0.00 | 0.00 | 0.00 | 75 | 1011.2 |
| 20260903234717 | 88 | 190 | 6.0 | 11.0 | 0.00 | 0.00 | 0.00 | 74 | 1011.1 |
| 20260903234217 | 88 | 180 | 6.0 | 11.0 | 0.00 | 0.00 | 0.00 | 74 | 1011.2 |
| 20260903233723 | 88 | 181 | 6.0 | 11.0 | 0.00 | 0.00 | 0.00 | 74 | 1011.2 |
| 20260903233203 | 88 | 139 | 5.0 | 11.0 | 0.00 | 0.00 | 0.00 | 74 | 1011.1 |
| 20260903232645 | 88 | 157 | 5.0 | 10.0 | 0.00 | 0.00 | 0.00 | 74 | 1011.1 |
| 20260903232125 | 88 | 188 | 5.0 | 13.0 | 0.00 | 0.00 | 0.00 | 74 | 1011.0 |
| 20260903231618 | 88 | 185 | 5.0 | 13.0 | 0.00 | 0.00 | 0.00 | 75 | 1011.0 |
| 20260903231058 | 88 | 188 | 5.0 | 13.0 | 0.00 | 0.00 | 0.00 | 75 | 1011.1 |
| 20260903224653 | 88 | 125 | 9.0 | 16.0 | 0.00 | 0.00 | 0.00 | 75 | 1011.4 |
| 20260903224144 | 88 | 79 | 9.0 | 16.0 | 0.00 | 0.00 | 0.00 | 75 | 1011.4 |
| 20260903223023 | 89 | 94 | 12.0 | 16.0 | 0.00 | 0.00 | 0.00 | 75 | 1011.4 |
| 20260903222526 | 89 | 82 | 13.0 | 16.0 | 0.00 | 0.00 | 0.00 | 75 | 1011.4 |
| 20260903222025 | 89 | 84 | 13.0 | 16.0 | 0.00 | 0.00 | 0.00 | 74 | 1011.4 |
| 20260903221513 | 89 | 105 | 13.0 | 16.0 | 0.00 | 0.00 | 0.00 | 74 | 1011.7 |
| 20260903220953 | 89 | 113 | 12.0 | 16.0 | 0.00 | 0.00 | 0.00 | 74 | 1011.6 |
| 20260903220456 | 89 | 116 | 12.0 | 16.0 | 0.00 | 0.00 | 0.00 | 75 | 1011.8 |
| 20260903215942 | 89 | 100 | 12.0 | 16.0 | 0.00 | 0.00 | 0.00 | 73 | 1011.8 |
| 20260903215438 | 89 | 121 | 12.0 | 16.0 | 0.00 | 0.00 | 0.00 | 73 | 1012.1 |
| 20260903214925 | 90 | 77 | 11.0 | 16.0 | 0.00 | 0.00 | 0.00 | 72 | 1012.1 |
| 20260903214403 | 90 | 94 | 11.0 | 15.0 | 0.00 | 0.00 | 0.00 | 72 | 1012.3 |
| 20260903213842 | 90 | 107 | 10.0 | 15.0 | 0.00 | 0.00 | 0.00 | 72 | 1012.4 |
| 20260903213329 | 90 | 80 | 9.0 | 13.0 | 0.00 | 0.00 | 0.00 | 72 | 1012.4 |
| 20260903212832 | 90 | 117 | 9.0 | 13.0 | 0.00 | 0.00 | 0.00 | 71 | 1012.3 |
| 20260903211716 | 91 | 111 | 4.0 | 12.0 | 0.00 | 0.00 | 0.00 | 73 | 1012.1 |
| 20260903211220 | 91 | 107 | 4.0 | 14.0 | 0.00 | 0.00 | 0.00 | 72 | 1012.1 |
| 20260903210056 | 90 | 77 | 9.0 | 14.0 | 0.00 | 0.00 | 0.00 | 73 | 1012.2 |
| 20260903205553 | 90 | 96 | 8.0 | 14.0 | 0.00 | 0.00 | 0.00 | 73 | 1012.2 |
| 20260903204424 | 90 | 98 | 10.0 | 16.0 | 0.00 | 0.00 | 0.00 | 74 | 1012.2 |
| 20260903203914 | 89 | 87 | 11.0 | 17.0 | 0.00 | 0.00 | 0.00 | 74 | 1012.2 |
| 20260903203406 | 90 | 87 | 11.0 | 17.0 | 0.00 | 0.00 | 0.00 | 75 | 1012.3 |
| 20260903202909 | 89 | 78 | 12.0 | 17.0 | 0.00 | 0.00 | 0.00 | 75 | 1012.2 |
| 20260903202401 | 89 | 76 | 13.0 | 17.0 | 0.00 | 0.00 | 0.00 | 75 | 1012.3 |
| 20260903201840 | 89 | 94 | 12.0 | 16.0 | 0.00 | 0.00 | 0.00 | 76 | 1012.2 |
| 20260903201340 | 89 | 103 | 11.0 | 14.0 | 0.00 | 0.00 | 0.00 | 75 | 1012.2 |
| 20260903200843 | 89 | 95 | 10.0 | 14.0 | 0.00 | 0.00 | 0.00 | 75 | 1012.4 |
| 20260903195714 | 89 | 97 | 8.0 | 13.0 | 0.00 | 0.00 | 0.00 | 75 | 1012.6 |
| 20260903194543 | 89 | 91 | 10.0 | 13.0 | 0.00 | 0.00 | 0.00 | 74 | 1012.5 |
| 20260903194021 | 90 | 94 | 10.0 | 15.0 | 0.00 | 0.00 | 0.00 | 74 | 1012.3 |
| 20260903193518 | 90 | 89 | 10.0 | 15.0 | 0.00 | 0.00 | 0.00 | 73 | 1012.5 |
| 20260903192957 | 90 | 87 | 10.0 | 15.0 | 0.00 | 0.00 | 0.00 | 71 | 1012.4 |
| 20260903192442 | 91 | 82 | 9.0 | 15.0 | 0.00 | 0.00 | 0.00 | 70 | 1012.4 |
| 20260903191942 | 93 | 91 | 6.0 | 13.0 | 0.00 | 0.00 | 0.00 | 68 | 1012.4 |
| 20260903191435 | 93 | 140 | 4.0 | 9.0 | 0.00 | 0.00 | 0.00 | 64 | 1012.5 |
| 20260903190932 | 94 | 117 | 2.0 | 8.0 | 0.00 | 0.00 | 0.00 | 64 | 1012.7 |
| 20260903190427 | 94 | 55 | 1.0 | 4.0 | 0.00 | 0.00 | 0.00 | 64 | 1012.7 |
| 20260903185913 | 94 | 103 | 2.0 | 5.0 | 0.00 | 0.00 | 0.00 | 65 | 1012.6 |
| 20260903185415 | 93 | 161 | 2.0 | 5.0 | 0.00 | 0.00 | 0.00 | 65 | 1012.8 |
| 20260903184910 | 93 | 152 | 3.0 | 5.0 | 0.00 | 0.00 | 0.00 | 65 | 1013.0 |
| 20260903184406 | 93 | 161 | 3.0 | 5.0 | 0.00 | 0.00 | 0.00 | 66 | 1012.8 |
| 20260903183848 | 93 | 155 | 2.0 | 5.0 | 0.00 | 0.00 | 0.00 | 66 | 1013.0 |
| 20260903183348 | 92 | 179 | 2.0 | 5.0 | 0.00 | 0.00 | 0.00 | 68 | 1013.2 |
| 20260903182844 | 92 | 200 | 3.0 | 5.0 | 0.00 | 0.00 | 0.00 | 67 | 1013.2 |
| 20260903182337 | 92 | 207 | 3.0 | 5.0 | 0.00 | 0.00 | 0.00 | 67 | 1013.2 |
| 20260903180542 | 92 | 168 | 3.0 | 5.0 | 0.00 | 0.00 | 0.00 | 66 | 1013.2 |
| 20260903180036 | 93 | 169 | 3.0 | 5.0 | 0.00 | 0.00 | 0.00 | 65 | 1013.5 |
| 20260903175540 | 93 | 190 | 3.0 | 5.0 | 0.00 | 0.00 | 0.00 | 65 | 1013.5 |
| 20260903175046 | 93 | 175 | 3.0 | 5.0 | 0.00 | 0.00 | 0.00 | 65 | 1013.5 |
| 20260903174533 | 93 | 171 | 3.0 | 5.0 | 0.00 | 0.00 | 0.00 | 65 | 1013.4 |
| 20260903174013 | 93 | 194 | 3.0 | 6.0 | 0.00 | 0.00 | 0.00 | 64 | 1013.3 |
| 20260903173510 | 93 | 190 | 3.0 | 6.0 | 0.00 | 0.00 | 0.00 | 65 | 1013.5 |
| 20260903172350 | 93 | 202 | 2.0 | 6.0 | 0.00 | 0.00 | 0.00 | 65 | 1013.7 |
| 20260903171852 | 93 | 189 | 2.0 | 5.0 | 0.00 | 0.00 | 0.00 | 65 | 1013.7 |
| 20260903171343 | 93 | 200 | 2.0 | 5.0 | 0.00 | 0.00 | 0.00 | 66 | 1014.0 |
| 20260903170832 | 93 | 173 | 3.0 | 5.0 | 0.00 | 0.00 | 0.00 | 65 | 1014.0 |
| 20260903170322 | 93 | 177 | 3.0 | 5.0 | 0.00 | 0.00 | 0.00 | 66 | 1014.0 |
| 20260903165812 | 93 | 179 | 3.0 | 4.0 | 0.00 | 0.00 | 0.00 | 65 | 1013.9 |
| 20260903165317 | 93 | 202 | 3.0 | 5.0 | 0.00 | 0.00 | 0.00 | 65 | 1013.7 |